This demonstration page uses our WeatherBlox Daily Observations layout. Learn more.

Left ArrowRight Arrow

41.86663, -103.66717

Hourly Observations for March 28, 2020

Temp ( °F °C ) Dew Point ( °F °C ) Humidity (%) Winds ( mph kmh ) Pressure ( in mb ) Visibility ( mi km ) Precip ( " mm )
12:22 am 00:22 Cloudy with Light Snow 35 1.7 35 1.7 100 100 N 15 24 29.80 1009 9 14 0.01 0.25
12:32 am 00:32 Cloudy with Light Snow 35 1.7 35 1.7 100 100 N 14 22 29.80 1009 7 11 0.01 0.25
12:53 am 00:53 Cloudy with Light Rain 36 2.2 36 2.2 100 100 N 14 22 29.72 1006 10 16 0.01 0.25
1:04 am 01:04 Cloudy with Light Rain 36 2.2 36 2.2 100 100 N 14 22 29.81 1009 10 16 0.00 0.00
1:53 am 01:53 Cloudy with Light Snow 34 1.1 34 1.1 100 100 NNW 12 19 29.73 1007 3 4 0.01 0.25
2:37 am 02:37 Cloudy with Light Snow 34 1 N/A N/A NW 12 19 29.82 1010 3 5 0.03 0.76
2:53 am 02:53 Cloudy with Light Snow 34 1 N/A N/A NNW 14 22 29.74 1007 4 6 0.03 0.76
3:24 am 03:24 Cloudy with Light Snow 34 1 N/A N/A NW 12 19 29.81 1010 7 11 N/A
3:53 am 03:53 Cloudy with Light Snow 35 1.7 35 1.7 100 100 NNW 17 28 29.73 1007 6 10 0.01 0.25
4:53 am 04:53 Cloudy with Light Rain 35 1.7 35 1.7 100 100 NW 15 24 29.74 1007 9 14 0.01 0.25
5:18 am 05:18 Cloudy with Light Snow 35 1.7 35 1.7 100 100 NW 16 26 29.82 1010 6 10 0.00 0.00
5:53 am 05:53 Cloudy with Light Snow 36 2.2 36 2.2 100 100 NNW 17 28 29.77 1008 8 13 0.00 0.00
6:53 am 06:53 Cloudy 36 2.2 36 2.2 100 100 NW 18 30 29.80 1009 10 16 0.00 0.00
7:53 am 07:53 Cloudy 36 2.2 35 1.7 97 97 NW 18 30 29.83 1010 10 16 0.00 0.00
8:53 am 08:53 Cloudy 37 2.8 33 0.6 86 86 WNW 13 20 29.85 1011 10 16 N/A
9:53 am 09:53 Cloudy 39 3.9 33 0.6 79 79 NW 18 30 29.86 1011 10 16 N/A
10:53 am 10:53 Cloudy 42 5.6 33 0.6 71 71 NW 18 30 29.87 1011 10 16 N/A
11:53 am 11:53 Cloudy 46 7.8 31 -0.6 56 56 NNW 22 35 29.86 1011 10 16 N/A
12:53 pm 12:53 Mostly Sunny 50 10 25 -3.9 38 38 NNW 24 39 29.85 1011 10 16 N/A
1:53 pm 13:53 Cloudy 49 9.4 28 -2.2 44 44 NW 21 33 29.85 1011 10 16 N/A
2:53 pm 14:53 Mostly Cloudy 50 10 26 -3.3 39 39 NNW 17 28 29.85 1011 10 16 0.00 0.00
3:53 pm 15:53 Mostly Cloudy 49 9.4 24 -4.4 38 38 NNW 22 35 29.85 1011 10 16 N/A
4:53 pm 16:53 Mostly Cloudy 53 11.7 22 -5.6 30 30 NNW 17 28 29.84 1010 10 16 N/A
5:53 pm 17:53 Mostly Cloudy 52 11.1 23 -5 32 32 NNW 16 26 29.86 1011 10 16 N/A
6:53 pm 18:53 Sunny 46 7.8 25 -3.9 44 44 NW 7 11 29.90 1013 10 16 N/A
7:53 pm 19:53 Mostly Cloudy 40 4.4 26 -3.3 58 58 WNW 5 7 29.93 1014 10 16 N/A
8:53 pm 20:53 Partly Cloudy 37 2.8 25 -3.9 62 62 WNW 7 11 29.97 1015 10 16 N/A
9:53 pm 21:53 Cloudy 34 1.1 25 -3.9 70 70 W 6 9 29.98 1015 10 16 N/A
10:53 pm 22:53 Clear 35 1.7 24 -4.4 64 64 W 6 9 29.98 1015 10 16 N/A
11:53 pm 23:53 Mostly Cloudy 34 1.1 26 -3.3 73 73 NW 6 9 29.99 1016 10 16 N/A

Powered by AerisWeather